Free Severe Weather Alerts by Email and Text Message   

 
Follow iAlert.com on twitter @ialertcom
Search For Active Alerts in Your Area  
  Hi Guest:  [ Sign-up / Services ] [ Login ]

Current weather by "City, St" or "zip code"  

 

Advertise Here

Hazardous Weather Conditions

Child Abduction Emergency issued June 23 at 10:31PM CDT until June 26 at 7:00PM CDT
Flood Advisory issued June 24 at 8:56AM CDT until June 26 at 7:00PM CDT

Current Conditions: HOUSTON, TEXAS

Partly Cloudy


83.0 F

Last Updated on Jun 25 2017, 11:53 am CDT
Humidity: 74%
Wind Speed: E 8.1 mph
Barometer 30.17 in
Dewpoint: 73.9 F
Visibility: 10.00 mi
Precip: --
Heat Index: 90 F
Wind Chill: NA
Current conditions at:

Houston, Hooks Memorial Airport, TX (KDWH)

Lat: 30.06 Lon: -95.556

Local Radar Image active severe weather and emergency alerts image image weather storm and storm spotter reports image weather observation monitoring service image
Local
Radar
Active
Alerts
Storm Reports Weather
Monitoring

Weather Alert Notification Services


ialert severe weather and emergency alerts by text message and email ialert daily weather forecast by email and text message service ialert real-time weather-observation monitoring and alert notification service ialert storm report monitoring alert notification

Observation History for HOUSTON, TEXAS


Time Wind
(mph)
Vis
(mi)
Weather Precip (in) Temperature (F) Relative
Humidity
Wind
Chill
(°F)
Heat
Index
(°F)
Pressure
Air Dwpt altimeter
(in)
sea level
(mb)
11:53 am CDT E 8.1 10.00 Partly Cloudy -- 83.0 73.9 74% NA 90 30.17 1021.3
10:53 am CDT NE 5.8 10.00 Partly Cloudy -- 81.0 71.1 72% NA 85 30.17 1021.5
9:53 am CDT 5.8 10.00 Fair -- 80.0 72.0 76% NA 84 30.16 1021.2
8:53 am CDT NE 4.6 10.00 Fair -- 77.0 72.0 85% NA NA 30.14 1020.3
7:53 am CDT W 3.5 10.00 Fair -- 74.0 72.0 94% NA NA 30.12 1019.5
6:53 am CDT N 0.0 10.00 Light Rain 00.02 73.0 71.1 94% NA NA 30.10 1019.0
5:53 am CDT S 5.8 G 16.1 10.00 Light Rain -- 73.0 71.1 94% NA NA 30.12 1019.8
4:53 am CDT E 11.5 G 17.3 9.00 Thunderstorm in Vicinity Light Rain -- 76.0 73.0 91% NA NA 30.10 1019.0
3:53 am CDT NE 3.5 10.00 Partly Cloudy -- 78.0 75.0 90% NA NA 30.08 1018.4
2:53 am CDT N 0.0 9.00 Mostly Cloudy -- 77.0 75.0 94% NA NA 30.10 1018.9
1:53 am CDT NE 3.5 10.00 Fair -- 77.0 75.0 94% NA NA 30.10 1019.1
12:53 am CDT N 0.0 10.00 Fair -- 77.0 75.0 94% NA NA 30.11 1019.2
11:53 pm CDT NE 3.5 10.00 A Few Clouds -- 79.0 75.0 88% NA NA 30.11 1019.2
10:53 pm CDT N 0.0 10.00 Mostly Cloudy -- 80.0 75.0 85% NA 85 30.09 1018.6
9:53 pm CDT N 0.0 10.00 Fair -- 79.0 75.9 90% NA NA 30.06 1017.7
8:53 pm CDT NE 3.5 10.00 Partly Cloudy -- 81.0 75.0 82% NA 87 30.04 1016.9
7:53 pm CDT N 3.5 10.00 Mostly Cloudy -- 82.0 75.0 79% NA 89 30.02 1016.5
6:53 pm CDT 3.5 10.00 Fair -- 82.0 75.0 79% NA 89 30.00 1015.7
5:53 pm CDT NE 6.9 10.00 A Few Clouds -- 82.0 73.9 77% NA 88 30.00 1015.6
4:53 pm CDT NE 6.9 10.00 Partly Cloudy -- 82.0 73.0 74% NA 87 30.01 1016.1
3:53 pm CDT NE 3.5 10.00 Fair -- 81.0 73.0 77% NA 86 30.04 1017.1
2:53 pm CDT N 9.2 10.00 A Few Clouds Trace 78.0 73.0 85% NA NA 30.07 1018.0
1:53 pm CDT NW 4.6 10.00 Light Rain 00.01 79.0 75.9 90% NA NA 30.09 1018.6
12:53 pm CDT W 6.9 10.00 Mostly Cloudy Trace 79.0 75.0 88% NA NA 30.09 1018.8

Regional Weather Observation:


John Dunn Helistop, TX (KMCJ)

A Few Clouds
84.0 F

Houston, Houston Hobby Airport, TX (KHOU)

Mostly Cloudy
86.0 F

Houston Southwest Airport, TX (KAXH)

Mostly Cloudy
85.0 F

Conroe, Montgomery County Airport, TX (KCXO)

Partly Cloudy
81.0 F

Houston, Pearland Regional Airport, TX (KLVJ)

Mostly Cloudy
85.0 F

Cleveland, TX (K6R3)

Thunderstorm in Vicinity
78.0 F

Advertise Here


Advertise Here